AirNav   Pilot Hours Calculator
 
 900 users online  

MN67 Sky Park Airport
Lydia, Minnesota, USA

GOING TO LYDIA?


FAA INFORMATION EFFECTIVE 20 MAY 2021

Location

FAA Identifier: MN67
Lat/Long: 44-39-34.8660N 093-31-05.8300W
44-39.581100N 093-31.097167W
44.6596850,-93.5182861
(estimated)
Elevation: 940 ft. / 287 m (estimated)
Variation: 03E (1985)
From city: 1 mile NW of LYDIA, MN
Time zone: UTC -5 (UTC -6 during Standard Time)
Zip code: 55352

Airport Operations

Airport use: Private use. Permission required prior to landing
Activation date: 10/1970
Control tower: no
ARTCC: MINNEAPOLIS CENTER
FSS: PRINCETON FLIGHT SERVICE STATION
Attendance: UNATNDD
Wind indicator: yes
Segmented circle: no

Airport Communications

WX ASOS at FCM (10 nm N): 124.9 (952-941-4156)
WX AWOS-3 at LVN (13 nm E): 118.0 (952-469-5850)
WX ASOS at MSP (18 nm NE): PHONE 612-713-4174

Nearby radio navigation aids

VOR radial/distance  VOR name  Freq  Var
FCMr197/10.4FLYING CLOUD VOR/DME117.7001E
FGTr271/14.5FARMINGTON VORTAC115.7006E
MSPr218/18.6MINNEAPOLIS VOR/DME115.3002E
FOWr345/28.0HALFWAY VOR/DME111.2002E
GEPr186/29.8GOPHER VORTAC117.3006E
MKTr026/31.3MANKATO VOR/DME110.8007E

Airport Services

Airframe service: NONE
Powerplant service: NONE

Runway Information

Runway 18/36

Dimensions: 3400 x 150 ft. / 1036 x 46 m
Surface: turf
RUNWAY 18  RUNWAY 36
Traffic pattern: leftleft
Obstructions: pline road, 1500 ft. from runwaypline road, 1500 ft. from runway

Airport Ownership and Management from official FAA records

Ownership: Privately-owned
Owner: SKY PARK, INC.
19916 XEON AVE
JORDAN, MN 55352
Phone 952-905-4409
Manager: BRYAN BOURN
19916 XEON AVE
JORDAN, MN 55352
Phone 952-905-4409

Airport Operational Statistics

Aircraft based on the field: 20
Single engine airplanes: 20
    

Additional Remarks

FOR CD CTC MINNEAPOLIS ARTCC AT 651-463-5588.
ALL PVT PROPERTY. NO COMMON PUB RAMP SPACE OR FAC.

Instrument Procedures

There are no published instrument procedures at MN67.

Some nearby airports with instrument procedures:

KFCM - Flying Cloud Airport (10 nm N)
KLVN - Airlake Airport (13 nm E)
KMSP - Minneapolis-St Paul International/Wold-Chamberlain Airport (18 nm NE)
KFBL - Faribault Municipal Airport-Liz Wall Strohfus Field (22 nm SE)
KSGS - South St Paul Municipal Airport-Richard E Fleming Field (24 nm NE)
 
Loc | Ops | Rwys | IFR | FBO | Links
Com | Nav | Svcs | Stats | Notes
Area around MN67 (Sky Park Airport)
 
Road maps at: MapQuest Bing Google
 
Aerial photo
No photo
 
Sectional chart

 
Airport distance calculator
Flying to Sky Park Airport? Find the distance to fly.

From to MN67

Sunrise and sunset
Times for 12-Jun-2021
 Local
(UTC-5)
 Zulu
(UTC)
Morning civil twilight04:5209:52
Sunrise05:2910:29
Sunset20:5901:59
Evening civil twilight21:3502:35

Current date and time
Zulu (UTC)  13-Jun-2021 01:28:37
Local (UTC-5)  12-Jun-2021 20:28:37
 
METAR
KFCM 
11nm N 
130053Z 34005KT 10SM CLR 28/07 A2995 RMK AO2 SLP136 T02780067
KLVN 
13nm E 
130115Z AUTO 31006KT 10SM CLR 26/05 A2996 RMK AO2
KMSP 
18nm NE 
130053Z 32011KT 10SM CLR 28/05 A2995 RMK AO2 SLP136 T02780050
KSGS 
19nm NE 
130115Z AUTO 29006KT 10SM CLR 28/04 A2995 RMK AO2 T02750044
TAF
KMSP 
18nm NE 
122057Z 1221/1324 31014G21KT P6SM SKC FM130300 VRB03KT P6SM SKC FM131300 19009KT P6SM SKC FM131900 23012G21KT P6SM FEW120 FM132300 29012G22KT P6SM FEW250
NOTAMs
Click for the latest NOTAMs
NOTAMs are issued by the DoD/FAA and will open in a separate window not controlled by AirNav.

 

 
 

Would you like to see your business listed on this page?

 If your business provides an interesting product or service to pilots, flight crews, aircraft, or users of the Sky Park Airport, you should consider listing it here.  To start the listing process, click on the button below
 
Add a business
 

Other Pages about Sky Park Airport

Update a link
 
Copyright © AirNav, LLC. All rights reserved. Privacy Policy  Contact